Find Starlink 30246

NORAD ID: 57615 Int'l Des: 2023-119 Owner: SPXS Country: US Constellation: starlink operational
LEOCIRCULAR

当前视图

正在加载3D地球...

About Starlink 30246

Starlink 30246 (NORAD 57615) is a starlink constellation satellite (v2 mini) launched Aug 11, 2023 by SPXS of US. It operates in LEO, CIRCULAR orbit with a mass of 730.00 kg.

即将过境

Passes for default location (London). Set your location on the main map for personalized predictions.

高度历史

Loading altitude history...

两行轨道根数

1 57615U 23119P 26263.13594419 .00039363 00000-0 12147-2 0 9996
2 57615 42.9975 61.7679 0008658 294.4501 65.5449 15.32875364172849
Epoch: Sep 20, 2026 • Age: 23 hours

当前状态

高度 475.5 km
远地点 / 近地点 N/A
速度 7.63 km/s
星下点 -42.74°S, 77.89°W
发射日期 Aug 11, 2023
运行时间 3.1 years
类型 internet

技术详情

分类 Payload
质量 730.00 kg
干质量 700.00 kg
长度 0.30 m
跨度 29.00 m
形状 ? Box + pan
制造商 SPXS
平台类型 Starlink V2M
阶段状态 In Orbit
所有者/国家 SPXS/US

Most Searched